Погода в Сенькином

Россия / Пермский край     58°27′11″N   56°15′17″E
темп.,
°C
ветер,
м/с
пор.,
м/с
влажн.,
%
обл.,
%
осадки,
мм/ч
давл.,
гПа
погр.,
м
17 октября, вс
вс1723:00+6ююз41170100 0.0 1017585
02:00+6ююз4126794 0.0 1016589
05:00+6ююз51267100 0.0 1015604
08:00+5ююз41272100 0.0 1014491
11:00+7ююз5146481 0.0 1013721
14:00+9юз6125648 0.0 10121230
17:00+8зюз51070100 0.0 10131200
20:00+6юз397368 0.1 1014344
18 октября, пн
пн1823:00+6ююз31182100 0.1 1013493
02:00+5ююз41281100 0.0 1012445
05:00+5ю31181100 0.0 1011390
08:00+6ююз31079100 0.0 1011399
11:00+7ююз41078100 0.0 1010578
14:00+9ююз486778 0.0 1009977
17:00+8ююз3873100 0.0 1008641
20:00+6ю3992100 0.0 1008318
19 октября, вт
вт1923:00+7ю3992100 0.1 1007439
02:00+7ю4994100 0.8 10051055
05:00+7зюз41088100 4.2 10041081
08:00+5зюз51077100 0.2 1005920
11:00+4з4772100 0.3 1007854
14:00+5з4564100 0.0 10081070
17:00+4з3666100 0.0 1008882
20:00+2з2577100 0.0 1010167
20 октября, ср
ср2023:00+1зюз227958 0.0 101030
02:00−1зсз228472 0.0 101143
05:00−1сз1188100 0.0 101115
08:00−1сз1188100 0.0 101231
11:00+2ссз1275100 0.0 1012439
14:00+3с2364100 0.0 1011989
17:00+2ссз2371100 0.0 1011114
20:00+1сз2673100 0.0 1012240
21 октября, чт
чт2123:00+1ссз367398 0.1 1012361
02:00−1ссз258068 0.0 1012125
05:00−1ссз37846 0.0 1013335
08:00−2сз269370 0.0 1013233
11:000сз347669 0.0 1013638
14:00+1з2261100 0.0 1011820
17:00+1юз2664100 0.0 1009284
20:00−1ю3957100 0.0 1009432